Weather History for Tomahawk, WI

Change the Weather History Date:

Friday, December 6, 2013

  Actual Average (KRHI) Record (KRHI)
Temperature  
Mean Temperature -2 °F 20 °F  
Max Temperature 5 °F 28 °F 52 °F (1998)
Min Temperature -9 °F 12 °F -18 °F (1926)
Degree Days  
Heating Degree Days 66 45  
Month to date heating degree days 264  
Since 1 July heating degree days 2398  
Cooling Degree Days 0 0  
Month to date cooling degree days 0  
Year to date cooling degree days 261  
Moisture  
Dew Point -8 °F    
Average Humidity 78    
Maximum Humidity 85    
Minimum Humidity 67    
Precipitation  
Precipitation 0.00 in 0.05 in 0.51 in (1912)
Month to date precipitation 0.32  
Year to date precipitation 30.28  
Snow  
Snow 0.00 in - 3.50 in (1949)
Month to date snowfall  
Since 1 July snowfall  
Snow Depth -    
Sea Level Pressure  
Sea Level Pressure 30.30 in    
Wind  
Wind Speed 6 mph (West)    
Max Wind Speed 13 mph    
Max Gust Speed -    
Visibility 10 miles    
Events      
T = Trace of Precipitation, MM = Missing Value Source: NWS Daily Summary

Daily Weather History Graph

Daily Weather History Graph

Search for Another Location

Airport:

Trip Planner

Search our weather history database for the weather conditions in past years. The results will help you decide how hot, cold, wet, or windy it might be!

Date:

Astronomy

Dec. 06, 2013 Rise Set
Actual Time 7:24 AM CST 4:16 PM CST
Civil Twilight 6:50 AM CST 4:49 PM CST
Nautical Twilight 6:13 AM CST 5:27 PM CST
Astronomical Twilight 5:37 AM CST 6:03 PM CST
Moon 10:23 AM CST (12/6) 8:56 PM CST (12/6)
Length of Visible Light 9h 59m
Length of Day
8h 51m
Waxing Crescent, 19% of the Moon is Illuminated
Dec 6
Waxing Crescent
Dec 9
First Quarter
Dec 17
Full
Dec 25
Last Quarter
Jan 1
New

Hourly Weather History & Observations

Time (CST) Temp. Windchill Dew Point Humidity Pressure Visibility Wind Dir Wind Speed Gust Speed Precip Events Conditions
12:15 AM -1.5 °F -13.3 °F -5.6 °F 83% 30.14 in 10.0 mi West 5.8 mph - N/A   Clear
12:35 AM -1.7 °F -13.5 °F -5.8 °F 83% 30.16 in 10.0 mi West 5.8 mph - N/A   Clear
12:55 AM -2.2 °F -10.4 °F -6.2 °F 83% 30.16 in 10.0 mi WSW 3.5 mph - N/A   Scattered Clouds
1:15 AM -2.4 °F -10.6 °F -6.7 °F 82% 30.17 in 10.0 mi WSW 3.5 mph - N/A   Scattered Clouds
1:35 AM -2.7 °F -13.1 °F -6.9 °F 82% 30.18 in 10.0 mi West 4.6 mph - N/A   Clear
1:55 AM -3.3 °F -18.2 °F -7.6 °F 82% 30.17 in 10.0 mi West 8.1 mph - N/A   Clear
2:15 AM -3.6 °F -17.3 °F -8.0 °F 82% 30.18 in 10.0 mi West 6.9 mph - N/A   Clear
2:35 AM -4.0 °F -14.6 °F -8.1 °F 82% 30.18 in 10.0 mi West 4.6 mph - N/A   Clear
5:35 AM -7.4 °F -18.6 °F -11.6 °F 82% 30.19 in 10.0 mi West 4.6 mph - N/A   Clear
5:55 AM -7.8 °F -20.8 °F -12.1 °F 81% 30.20 in 10.0 mi West 5.8 mph - N/A   Clear
6:15 AM -7.8 °F -20.8 °F -12.1 °F 81% 30.21 in 10.0 mi West 5.8 mph - N/A   Clear
6:35 AM -7.8 °F -20.8 °F -12.1 °F 81% 30.22 in 10.0 mi West 5.8 mph - N/A   Clear
6:55 AM -7.8 °F -20.8 °F -12.1 °F 81% 30.23 in 10.0 mi West 5.8 mph - N/A   Clear
7:15 AM -8.1 °F -19.4 °F -12.5 °F 81% 30.24 in 10.0 mi West 4.6 mph - N/A   Clear
7:35 AM -8.5 °F -19.8 °F -12.8 °F 81% 30.25 in 10.0 mi West 4.6 mph - N/A   Clear
7:55 AM -8.0 °F -22.5 °F -12.3 °F 81% 30.25 in 10.0 mi West 6.9 mph - N/A   Clear
8:15 AM -7.6 °F -20.6 °F -11.7 °F 82% 30.25 in 10.0 mi West 5.8 mph - N/A   Clear
8:35 AM -6.7 °F -23.5 °F -11.2 °F 81% 30.26 in 10.0 mi West 9.2 mph - N/A   Clear
8:55 AM -5.4 °F -23.0 °F -10.3 °F 80% 30.27 in 10.0 mi West 10.4 mph - N/A   Clear
9:15 AM -4.9 °F -17.4 °F -9.4 °F 81% 30.28 in 10.0 mi West 5.8 mph - N/A   Clear
9:35 AM -4.0 °F -19.0 °F -8.7 °F 80% 30.29 in 10.0 mi West 8.1 mph - N/A   Clear
9:55 AM -3.1 °F -17.9 °F -8.1 °F 79% 30.29 in 10.0 mi West 8.1 mph - N/A   Clear
10:15 AM -1.8 °F -17.5 °F -7.6 °F 76% 30.29 in 10.0 mi West 9.2 mph - N/A   Clear
10:35 AM -0.6 °F -16.9 °F -6.7 °F 75% 30.29 in 10.0 mi West 10.4 mph - N/A   Clear
10:55 AM 0.9 °F -14.2 °F -6.2 °F 72% 30.29 in 10.0 mi West 9.2 mph - N/A   Clear
11:15 AM 1.9 °F -11.8 °F -5.4 °F 71% 30.29 in 10.0 mi West 8.1 mph - N/A   Clear
11:35 AM 3.0 °F -10.5 °F -4.9 °F 70% 30.29 in 10.0 mi West 8.1 mph - N/A   Clear
11:55 AM 3.7 °F -8.4 °F -4.9 °F 67% 30.29 in 10.0 mi West 6.9 mph - N/A   Clear
12:15 PM 3.7 °F -11.6 °F -4.7 °F 68% 30.29 in 10.0 mi West 10.4 mph - N/A   Clear
12:35 PM 4.6 °F -8.5 °F -4.0 °F 67% 30.28 in 10.0 mi WNW 8.1 mph - N/A   Clear
12:55 PM 4.5 °F -12.3 °F -4.0 °F 68% 30.28 in 10.0 mi West 12.7 mph - N/A   Clear
1:15 PM 4.8 °F -8.3 °F -3.6 °F 68% 30.28 in 10.0 mi West 8.1 mph - N/A   Clear
1:35 PM 4.8 °F -10.2 °F -3.5 °F 69% 30.28 in 10.0 mi West 10.4 mph - N/A   Clear
1:55 PM 4.8 °F -7.1 °F -3.5 °F 69% 30.28 in 10.0 mi West 6.9 mph - N/A   Clear
2:15 PM 5.0 °F -8.1 °F -3.1 °F 69% 30.28 in 10.0 mi WNW 8.1 mph - N/A   Clear
2:35 PM 5.5 °F -7.4 °F -2.9 °F 68% 30.29 in 10.0 mi West 8.1 mph - N/A   Clear
2:55 PM 5.2 °F -6.7 °F -3.1 °F 69% 30.29 in 10.0 mi West 6.9 mph - N/A   Clear
3:15 PM 4.6 °F -7.4 °F -3.1 °F 70% 30.30 in 10.0 mi West 6.9 mph - N/A   Clear
3:35 PM 4.1 °F -8.0 °F -3.3 °F 71% 30.30 in 10.0 mi West 6.9 mph - N/A   Clear
3:55 PM 3.2 °F -7.8 °F -3.6 °F 73% 30.31 in 10.0 mi West 5.8 mph - N/A   Clear
4:15 PM 2.1 °F -5.4 °F -4.0 °F 76% 30.31 in 10.0 mi West 3.5 mph - N/A   Clear
4:35 PM 1.6 °F -6.0 °F -3.8 °F 78% 30.32 in 10.0 mi West 3.5 mph - N/A   Clear
5:55 PM -0.9 °F - -4.9 °F 83% 30.34 in 10.0 mi Calm Calm - N/A   Mostly Cloudy
6:15 PM -0.8 °F -8.7 °F -4.9 °F 83% 30.34 in 10.0 mi West 3.5 mph - N/A   Mostly Cloudy
6:35 PM -0.9 °F -8.9 °F -4.7 °F 84% 30.34 in 10.0 mi WSW 3.5 mph - N/A   Mostly Cloudy
6:55 PM -3.1 °F -15.2 °F -6.9 °F 84% 30.35 in 10.0 mi West 5.8 mph - N/A   Scattered Clouds
7:15 PM -2.7 °F -16.2 °F -6.3 °F 85% 30.36 in 10.0 mi West 6.9 mph - N/A   Clear
7:35 PM -2.7 °F -16.2 °F -6.7 °F 83% 30.37 in 10.0 mi West 6.9 mph - N/A   Clear
7:55 PM -2.7 °F -16.2 °F -6.7 °F 83% 30.38 in 10.0 mi West 6.9 mph - N/A   Clear
8:15 PM -2.9 °F -11.2 °F -6.9 °F 83% 30.38 in 10.0 mi WNW 3.5 mph - N/A   Clear
8:35 PM -3.6 °F -14.1 °F -7.8 °F 82% 30.39 in 10.0 mi West 4.6 mph - N/A   Clear
8:55 PM -4.0 °F -12.4 °F -8.1 °F 82% 30.40 in 10.0 mi West 3.5 mph - N/A   Clear
9:15 PM -4.7 °F - -9.0 °F 82% 30.41 in 10.0 mi Calm Calm - N/A   Scattered Clouds
9:35 PM -6.0 °F - -10.5 °F 81% 30.41 in 10.0 mi Calm Calm - N/A   Scattered Clouds
9:55 PM -6.5 °F - -10.5 °F 83% 30.41 in 10.0 mi Calm Calm - N/A   Scattered Clouds
10:15 PM -5.8 °F - -9.9 °F 82% 30.41 in 10.0 mi Calm Calm - N/A   Mostly Cloudy
10:35 PM -7.6 °F - -11.7 °F 82% 30.42 in 10.0 mi Calm Calm - N/A   Scattered Clouds
10:55 PM -7.2 °F - -11.6 °F 81% 30.43 in 10.0 mi Calm Calm - N/A   Clear
11:15 PM -7.4 °F - -11.9 °F 81% 30.43 in 10.0 mi Calm Calm - N/A   Clear
11:35 PM -7.2 °F - -11.7 °F 81% 30.44 in 10.0 mi Calm Calm - N/A   Clear
11:55 PM -9.4 °F - -13.9 °F 81% 30.44 in 10.0 mi Calm Calm - N/A   Clear